CZ-6A DEB, 61471

Orbit data source: Space-Track

CZ-6A DEB, 61471 is space debris in LEO originally from a launch on Tue, 06 Aug 2024 UTC launched from the Taiyaun Space Center, China (TSC). Debris objects in space refer to the collection of defunct objects orbiting the Earth. Examples of debris include non-operational satellites, rocket bodies, and fragments generated from explosions, collisions, or faulty payload assembly.

Loading next visibility...
CZ-6A DEB details
Identifier
61471, 2024-140AAD
Orbit
LEO
Last TLE update1 day ago
Origin
Flag of CNCNSA (CN / PRC)
ManufacturerSAST
MissionSpacecraft
Bus & MotorUnknown
MassUnknown
Launch date (UTC)
2024-08-06 (6 months ago)
Launch vehicleUnknown
Launch site
Taiyaun Space Center, China (TSC)
Object type
Payload
Rocket body
Debris
Shape & HBRUnknown
Radar Cross SectionSmall (<0.1 m²)

Expand to show TLE details & history

TLE from 1 day ago
0 CZ-6A DEB
1 61471U 24140AAD 25035.27156196  .00008977  00000-0  49933-2 0  9993
2 61471  88.9177 329.3131 0114856 353.2725   6.6909 14.07665994 21694
Epoch: 2025-02-04T06:31Z
Definitive object data (Epoch: 2025-02-04T06:31:02.953Z)
Latitude-0.00004°
Longitude96.87155°
Altitude787.749 km
Speed7.502 km/s
True Right ascension21h 57m 15s
True Declination0° 00' 00"
Sunlit
Object was in daylight at TLE epoch
Visualization TLE readout
Latitude59.1198°
Longitude98.55122°
Altitude846.733 km
Speed7.451 km/s
Apparent Right ascension21h 17m 44s
Apparent Declination13° 56' 50"
Sunlit
Object is in daylight
Visualization observer readout
Local Sidereal Time08:42:45
Azimuth349.556° N
Elevation-35.525°
Doppler factor1
Orbital elements
Apogee altitude947.523 km
Perigee altitude781.154 km
Semi-major axis7,242.476 km
Eccentricity0.0114856
Inclination88.9177°
RAAN329.3131°
Arg. of periapsis353.2725°
True anomaly6.84647°
Mean anomaly6.6909°
Eccentric anomaly6.76846°
Mean motion3.52138 °/min
BSTAR0.0049933
Orbital period102.23 mins
Loading maneuver chart data...
Loading historical data...
Loading historical data...
Loading historical data...
Loading historical data...
Loading historical data...
Loading historical data...
Loading historical data...

CZ-6A DEB Visibility forecast

Observer location: undefined°, undefined

Span
Click to sort rows by Start time (UTC) header in descending order
Start Az.
Max El. time (UTC)
Max El. Az.
Max El.
End time (UTC)
End Az.
10 mins2025-02-05 06:58:32.875Z19.663° NNE2025-02-05 07:03:32.875Z81.822° E30.723°2025-02-05 07:08:32.875Z147.347° SSE
8 mins2025-02-05 08:42:32.875Z327.431° NNW2025-02-05 08:45:32.875Z284.975° WNW27.342°2025-02-05 08:50:32.875Z223.092° SW
4 mins2025-02-05 18:30:32.875Z96.913° ESE2025-02-05 18:32:32.875Z72.082° E14.785°2025-02-05 18:34:32.875Z48.138° ENE
8 mins2025-02-05 20:10:32.875Z196.296° SSW2025-02-05 20:13:32.875Z244.641° WSW40.365°2025-02-05 20:18:32.875Z349.96° N
|